OneWeb SL0571

operational
NORAD ID: 55150 Int'l Des: 2023-004 Owner: ONEWEBN Country: UK Constellation: oneweb
LEOCIRCULARPOLARONEWEB_TYPE

Über OneWeb SL0571

Beschreibung wird geladen...

Live-Position

3D-Globus wird geladen...

Nächste Überflüge

Höhenverlauf

Altitude vs Time

uPlot chart will show altitude changes over time

Zweizeiliger Elementsatz

1 55150U 23004L 25258.59974182 .00000060 00000-0 12016-3 0 9991
2 55150 87.9177 30.0237 0001990 137.1501 222.9786 13.18688486133511
Epoch: 15. Sept. 2025 • Age: 9 hours

Aktueller Status

Höhe 1201.7 km
Geschwindigkeit 7.26 km/s
Subsatellitenpunkt 73.39°N, 43.67°E
Startdatum 10. Jan. 2023
Alter 2.6 years
Typ internet

Technische Details

Klassifizierung Payload
Masse 148.00 kg
Trockenmasse 140.00 kg
Gesamtmasse 148.00 kg
Länge 1.30 m
Durchmesser 1.00 m
Spannweite 5.00 m
Form Trapezoid+2 pan
Hersteller ONEWUS
Bus-Typ ARROW
Phasenstatus In Orbit
Besitzer/Staat ONEWEBN/UK

Große Konstellationen

Loading constellations...